Flag for U.S.A. Weather past 2 weeks in Ann Arbor, Michigan, U.S.A.

Now
79 °F

Passing clouds.


Feels Like: 81 °F
Forecast: 67 / 83 °F
Wind: 9 mph from Southwest

Location: Ann Arbor Municipal Airport

Current Time: Aug 30, 2014 at 12:34:17 PM

Latest Report: Aug 30, 2014 at 11:53 AM


Visibility: 10 mi

Pressure: 29.93 "Hg

Humidity: 67%

Dew point: 67 °F

Location of Ann ArborLocation

Historic Weather in Ann Arbor — Graph

°F

Ann Arbor temperature yesterday

Maximum temperature yesterday: 78 °F (at 5:53 PM)
Minimum temperature yesterday: 57 °F (at 1:53 AM)
Average temperature yesterday: 66 °F

Past Weeks' High & Low Weather Summary

 TemperatureHumidityPressure
High89 °F (Aug 26, 1:53 PM)94% (Aug 20, 6:00 AM)30.16 "Hg (Aug 20, 6:00 AM)
Low46 °F (Aug 16, 3:01 AM)34% (Aug 15, 3:53 PM)29.74 "Hg (Aug 19, 3:53 PM)
Average70 °F75%29.99 "Hg
* Reported Aug 15 10:53 AM — Aug 30 10:53 AM, Ann Arbor, Weather by CustomWeather, © 2014

Note: Actual official high and low records may vary slightly from our data, if they occured in-between our weather recording intervals... More about our weather records

Advertising

Ann Arbor weather history for previous 24 hours

 ConditionsComfort  
Time TempWeatherWind HumidityBarometerVisibility
10:53 AM
Aug 30
78 °FScattered clouds.12 mph66%29.93 "Hg10 mi
9:53 AM75 °FPartly sunny.8 mph74%29.94 "Hg10 mi
8:53 AM71 °FSunny.8 mph76%29.96 "Hg10 mi
7:53 AM68 °FClear.7 mph82%29.96 "Hg10 mi
6:53 AM65 °FClear.3 mph85%29.96 "Hg10 mi
5:53 AM65 °FClear.No wind85%29.95 "Hg10 mi
4:53 AM67 °FPassing clouds.3 mph81%29.96 "Hg10 mi
3:53 AM68 °FClear.5 mph78%29.96 "Hg10 mi
2:53 AM68 °FClear.No wind78%29.97 "Hg10 mi
1:53 AM68 °FClear.No wind82%29.99 "Hg10 mi
12:53 AM69 °FClear.No wind79%30.01 "Hg10 mi
11:53 PM
Aug 29
68 °FClear.6 mph82%30.02 "Hg10 mi
10:53 PM69 °FClear.3 mph76%30.03 "Hg10 mi
9:53 PM69 °FClear.7 mph73%30.02 "Hg10 mi
8:53 PM69 °FSunny.8 mph73%30.01 "Hg10 mi
7:53 PM71 °FSunny.8 mph68%30.01 "Hg10 mi
6:53 PM75 °FSunny.7 mph62%30.02 "Hg10 mi
5:53 PM78 °FSunny.7 mph56%30.03 "Hg10 mi
4:53 PM77 °FPassing clouds.8 mph58%30.04 "Hg10 mi
2:53 PM76 °FSunny.8 mph56%30.07 "Hg10 mi
1:53 PM73 °FPartly sunny.9 mph55%30.09 "Hg10 mi
12:53 PM70 °FSunny.7 mph57%30.11 "Hg10 mi
Weather by CustomWeather, © 2014

See weather overviewHow to use our weather pages